Regional Weather Roundup
Issued by NWS

Home | Current Version | Previous Version | Graphics & Text | Print | Product List | Glossary On
Versions: 1 2 3 4 5 6 7 8 9 10 11 12 13 14 15 16 17 18 19 20 21 22 23 24 25 26 27 28 29 30 31 32 33 34 35 36 37 38 39 40 41 42 43 44 45 46 47 48 49 50
000
ASUS43 KOAX 270602
RWRNE

WEATHER ROUNDUP FOR NEBRASKA
NATIONAL WEATHER SERVICE OMAHA NE
100 AM CDT THU APR 27 2017

NOTES: SATELLITE DATA IS BEING USED TO AUGMENT CLOUD COVER ABOVE
       12000 FEET.
       "FAIR" INDICATES FEW OR NO CLOUDS BELOW 12,000 FEET WITH NO
       SIGNIFICANT WEATHER AND/OR OBSTRUCTIONS TO VISIBILITY.

  * THESE STATIONS DO NOT REPORT WEATHER SUCH AS RAIN...SNOW OR FOG.

NEZ001>004-019>022-054>056-270700-
NEBRASKA PANHANDLE

CITY           SKY/WX    TMP DP  RH WIND       PRES   REMARKS
SCOTTSBLUFF    CLOUDY    40  37  89 E8        29.66F WCI  34
6HR MIN TEMP:  40; 6HR MAX TEMP:  53; 6HR PCP: TRACE;

ALLIANCE       CLEAR     30  27  88 E6        29.68F WCI  24
6HR MIN TEMP:  29; 6HR MAX TEMP:  48;

CHADRON        CLOUDY    30  28  92 N3        29.70F
6HR MIN TEMP:  30; 6HR MAX TEMP:  45;

SIDNEY         CLOUDY    40  38  93 S7        29.69F
6HR MIN TEMP:  39; 6HR MAX TEMP:  52; 6HR PCP:  0.01;

$$

NEZ057>060-069>072-079>082-270700-
SOUTHWEST NEBRASKA

CITY           SKY/WX    TMP DP  RH WIND       PRES   REMARKS
NORTH PLATTE   PTCLDY    34  30  85 NE6       29.72S WCI  29
6HR MIN TEMP:  32; 6HR MAX TEMP:  51;

IMPERIAL       CLOUDY    39  31  72 SE3       29.72F
6HR MIN TEMP:  39; 6HR MAX TEMP:  57;

LEXINGTON      CLOUDY    33  28  82 NE3       29.73S
MCCOOK         CLOUDY    35  27  72 CALM      29.74R
6HR MIN TEMP:  35; 6HR MAX TEMP:  56;

OGALLALA       CLOUDY    42  33  70 SE3       29.72R
$$

NEZ005>010-023>029-035>040-094-270700-
NORTH CENTRAL NEBRASKA

CITY           SKY/WX    TMP DP  RH WIND       PRES   REMARKS
VALENTINE      CLEAR     28  23  81 W7        29.72R WCI  21
6HR MIN TEMP:  27; 6HR MAX TEMP:  44;

AINSWORTH      CLEAR     31  29  90 NW3       29.71S
BROKEN BOW     CLEAR     29  25  85 CALM      29.72S
6HR MIN TEMP:  28; 6HR MAX TEMP:  46;

O`NEILL        PTCLDY    29  25  88 N5        29.73S WCI  23
ORD            CLEAR     31  26  82 NW5       29.71S WCI  26
6HR MIN TEMP:  30; 6HR MAX TEMP:  44;

THEDFORD       CLEAR     28  27  93 CALM      29.72F
$$

NEZ041-046>049-061>064-073>077-083>087-270700-
SOUTH CENTRAL NEBRASKA

CITY           SKY/WX    TMP DP  RH WIND       PRES   REMARKS
GRAND ISLAND   CLEAR     31  29  92 W7        29.73S WCI  24
6HR MIN TEMP:  29; 6HR MAX TEMP:  44;

AURORA         CLEAR     29  26  88 W9        29.71S WCI  21
HASTINGS       CLEAR     31  27  85 W7        29.73F WCI  24
6HR MIN TEMP:  29; 6HR MAX TEMP:  45;

HEBRON         CLEAR     34  29  81 CALM      29.73F
HOLDREGE       CLEAR     29  26  88 NE3       29.73S
KEARNEY *      CLEAR     34  27  75 N5        29.74S WCI  30
YORK           CLEAR     28  25  86 W8        29.71S WCI  20
$$

NEZ011>018-030>034-042>045-270700-
NORTHEAST NEBRASKA

CITY           SKY/WX    TMP DP  RH WIND       PRES   REMARKS
NORFOLK        CLOUDY    36  29  75 NW13      29.68F WCI  27
6HR MIN TEMP:  36; 6HR MAX TEMP:  41;

ALBION         PTCLDY    29  26  88 NW5       29.71S WCI  24
BLAIR          CLOUDY    38  32  77 NW7       29.68R WCI  33
FREMONT        CLOUDY    38  32  77 NW8       29.70R WCI  32
TEKAMAH        CLOUDY    38  29  70 NW13      29.69R WCI  30
6HR MIN TEMP:  38; 6HR MAX TEMP:  43;

WAYNE          CLOUDY    34  29  82 NW12      29.68F WCI  26
$$

NEZ050>053-065>068-078-088>093-270700-
SOUTHEAST NEBRASKA

CITY           SKY/WX    TMP DP  RH WIND       PRES   REMARKS
LINCOLN        CLOUDY    42  31  64 W5        29.72R
6HR MIN TEMP:  42; 6HR MAX TEMP:  46;

OMAHA EPPLEY   CLOUDY    40  31  70 NW13      29.69S WCI  32
6HR MIN TEMP:  40; 6HR MAX TEMP:  43;

BEATRICE       CLEAR     35  30  83 NW5       29.71F WCI  30
FALLS CITY     CLOUDY    42  33  70 NW10      29.68F
6HR MIN TEMP:  42; 6HR MAX TEMP:  44;

NEBRASKA CITY  CLOUDY    40  31  67 NW9       29.69S WCI  35
PLATTSMOUTH    CLOUDY    40  28  64 NW9       29.68S WCI  33
$$

NEZ044-045-051>053-067-270700-
OMAHA AREA

CITY           SKY/WX    TMP DP  RH WIND       PRES   REMARKS
OMAHA EPPLEY   CLOUDY    40  31  70 NW13      29.69S WCI  32
6HR MIN TEMP:  40; 6HR MAX TEMP:  43;

BLAIR          CLOUDY    38  32  77 NW7       29.68R WCI  33
FREMONT        CLOUDY    38  32  77 NW8       29.70R WCI  32
MILLARD        CLOUDY    42  32  68 NW6       29.69S
OFFUTT AFB     CLOUDY    40  30  69 NW13      29.68S WCI  32
PLATTSMOUTH    CLOUDY    40  28  64 NW9       29.68S WCI  33
WAHOO          CLOUDY    39  31  73 NW8       29.70R WCI  34
$$




USA.gov is the U.S. government's official web portal to all federal, state and local government web resources and services.